timestamp,wind_dir_avg,wind_spd_avg,wind_spd_max_dir,wind_spd_gust,battery_voltage,lat,long
2024-02-11 00:04:00+00:00,315.0,0.01,242.0,0.0,12.17,47.59359,-54.27349
2024-02-11 00:14:00+00:00,315.0,0.01,242.0,0.0,12.17,47.59359,-54.27349
2024-02-11 00:24:00+00:00,315.0,0.01,242.0,0.0,12.17,47.59359,-54.27349
2024-02-11 00:34:00+00:00,315.0,0.01,242.0,0.0,12.17,47.59359,-54.27349
2024-02-11 00:44:00+00:00,315.0,0.01,242.0,0.0,12.17,47.59359,-54.27349
2024-02-11 00:54:00+00:00,315.0,0.01,242.0,0.0,12.17,47.59359,-54.27349
2024-02-11 01:04:00+00:00,315.0,0.01,242.0,0.0,12.17,47.59359,-54.27349
2024-02-11 01:14:00+00:00,315.0,0.01,242.0,0.0,12.17,47.59359,-54.27349
2024-02-11 01:24:00+00:00,315.0,0.01,242.0,0.0,12.17,47.59359,-54.27349
2024-02-11 01:34:00+00:00,315.0,0.01,242.0,0.0,12.17,47.59359,-54.27349
2024-02-11 01:44:00+00:00,315.0,0.01,242.0,0.0,12.17,47.59359,-54.27349
2024-02-11 01:54:00+00:00,315.0,0.01,242.0,0.0,12.17,47.59359,-54.27349
2024-02-11 02:04:00+00:00,315.0,0.01,242.0,0.0,12.17,47.59359,-54.27349
2024-02-11 02:14:00+00:00,315.0,0.01,242.0,0.0,12.17,47.59359,-54.27349
2024-02-11 02:24:00+00:00,315.0,0.01,233.0,0.0,12.17,47.59359,-54.27349
2024-02-11 02:34:00+00:00,315.0,0.01,233.0,0.0,12.17,47.59359,-54.27349
2024-02-11 02:44:00+00:00,315.0,0.01,229.0,0.0,12.17,47.59359,-54.27349
2024-02-11 02:54:00+00:00,224.0,7.75,225.0,7.76,12.17,47.59359,-54.27349
2024-02-11 03:04:00+00:00,315.0,0.01,225.0,0.0,12.17,47.59359,-54.27349
2024-02-11 03:14:00+00:00,315.0,0.01,225.0,0.0,12.09,47.59359,-54.27349
2024-02-11 03:24:00+00:00,315.0,0.01,250.0,0.0,12.09,47.59359,-54.27349
2024-02-11 03:34:00+00:00,315.0,0.01,231.0,0.0,12.09,47.59359,-54.27349
2024-02-11 03:44:00+00:00,315.0,0.01,227.0,0.0,12.09,47.59359,-54.27349
2024-02-11 03:54:00+00:00,315.0,0.01,227.0,0.0,12.09,47.59359,-54.27349
2024-02-11 04:04:00+00:00,315.0,0.01,227.0,0.0,12.09,47.59359,-54.27349
2024-02-11 04:14:00+00:00,315.0,0.01,227.0,0.0,12.09,47.59359,-54.27349
2024-02-11 04:24:00+00:00,315.0,0.01,227.0,0.0,12.09,47.59359,-54.27349
2024-02-11 04:34:00+00:00,315.0,0.01,227.0,0.0,12.09,47.59359,-54.27349
2024-02-11 04:44:00+00:00,315.0,0.01,227.0,0.0,12.09,47.59359,-54.27349
2024-02-11 04:54:00+00:00,229.0,8.72,237.0,10.04,12.09,47.59359,-54.27349
2024-02-11 05:04:00+00:00,315.0,0.01,225.0,0.0,12.09,47.59359,-54.27349
2024-02-11 05:14:00+00:00,315.0,0.01,228.0,0.0,12.09,47.59359,-54.27349
2024-02-11 05:24:00+00:00,315.0,0.01,240.0,0.0,12.09,47.59359,-54.27349
2024-02-11 05:34:00+00:00,223.0,8.5,224.0,8.51,12.09,47.59359,-54.27349
2024-02-11 05:44:00+00:00,315.0,0.01,229.0,0.0,12.09,47.59359,-54.27349
2024-02-11 05:54:00+00:00,223.0,8.09,224.0,8.1,12.09,47.59359,-54.27349
2024-02-11 06:04:00+00:00,219.0,8.94,217.0,9.65,12.09,47.59359,-54.27349
2024-02-11 06:14:00+00:00,240.0,10.56,241.0,10.58,12.01,47.59359,-54.27349
2024-02-11 06:24:00+00:00,226.0,8.6,235.0,9.86,12.01,47.59359,-54.27349
2024-02-11 06:34:00+00:00,217.0,9.32,214.0,9.85,12.01,47.59359,-54.27349
2024-02-11 06:44:00+00:00,315.0,0.01,211.0,0.0,12.01,47.59359,-54.27349
2024-02-11 06:54:00+00:00,315.0,0.01,220.0,0.0,12.01,47.59359,-54.27349
2024-02-11 07:04:00+00:00,315.0,0.01,220.0,0.0,12.01,47.59359,-54.27349
2024-02-11 07:14:00+00:00,315.0,0.01,215.0,0.0,12.01,47.59359,-54.27349
2024-02-11 07:24:00+00:00,315.0,0.01,215.0,0.0,12.01,47.59359,-54.27349
2024-02-11 07:34:00+00:00,315.0,0.01,215.0,0.0,12.01,47.59359,-54.27349
2024-02-11 07:44:00+00:00,315.0,0.01,215.0,0.0,12.01,47.59359,-54.27349
2024-02-11 07:54:00+00:00,315.0,0.01,215.0,0.0,12.01,47.59359,-54.27349
2024-02-11 08:04:00+00:00,315.0,0.01,215.0,0.0,12.01,47.59359,-54.27349
2024-02-11 08:14:00+00:00,315.0,0.01,192.0,0.0,11.93,47.59359,-54.27349
2024-02-11 08:24:00+00:00,315.0,0.01,197.0,0.0,11.93,47.59359,-54.27349
2024-02-11 08:34:00+00:00,315.0,0.01,179.0,0.0,11.93,47.59359,-54.27349
2024-02-11 08:44:00+00:00,315.0,0.01,191.0,0.0,11.93,47.59359,-54.27349
2024-02-11 08:54:00+00:00,315.0,0.01,191.0,0.0,11.93,47.59359,-54.27349
2024-02-11 09:04:00+00:00,315.0,0.01,191.0,0.0,11.93,47.59359,-54.27349
2024-02-11 09:14:00+00:00,315.0,0.01,191.0,0.0,12.01,47.59359,-54.27349
2024-02-11 09:24:00+00:00,315.0,0.01,191.0,0.0,12.01,47.59359,-54.27349
2024-02-11 09:34:00+00:00,315.0,0.01,224.0,0.0,12.01,47.59359,-54.27349
2024-02-11 09:44:00+00:00,315.0,0.01,218.0,0.0,12.01,47.59359,-54.27349
2024-02-11 09:54:00+00:00,315.0,0.01,215.0,0.0,12.01,47.59359,-54.27349
2024-02-11 10:04:00+00:00,315.0,0.01,232.0,0.0,12.01,47.59359,-54.27349
2024-02-11 11:14:00+00:00,315.0,0.01,216.0,0.0,11.93,47.59359,-54.27349
2024-02-11 11:24:00+00:00,315.0,0.01,216.0,0.0,11.93,47.59359,-54.27349
2024-02-11 11:34:00+00:00,315.0,0.01,216.0,0.0,11.93,47.59359,-54.27349
2024-02-11 11:44:00+00:00,315.0,0.01,216.0,0.0,11.93,47.59359,-54.27349
2024-02-11 11:54:00+00:00,315.0,0.01,216.0,0.0,11.93,47.59359,-54.27349
2024-02-11 12:04:00+00:00,315.0,0.01,216.0,0.0,11.93,47.59359,-54.27349
2024-02-11 12:14:00+00:00,315.0,0.01,216.0,0.0,11.93,47.59359,-54.27349
2024-02-11 12:24:00+00:00,315.0,0.01,216.0,0.0,11.93,47.59359,-54.27349
2024-02-11 12:34:00+00:00,315.0,0.01,216.0,0.0,11.93,47.59359,-54.27349
2024-02-11 12:44:00+00:00,315.0,0.01,216.0,0.0,11.93,47.59359,-54.27349
2024-02-11 12:54:00+00:00,315.0,0.01,216.0,0.0,11.93,47.59359,-54.27349
2024-02-11 13:04:00+00:00,315.0,0.01,216.0,0.0,11.93,47.59359,-54.27349
2024-02-11 13:14:00+00:00,315.0,0.01,216.0,0.0,12.17,47.59359,-54.27349
2024-02-11 13:24:00+00:00,315.0,0.01,186.0,0.0,12.17,47.59359,-54.27349
2024-02-11 13:34:00+00:00,190.0,4.47,198.0,5.12,12.17,47.59359,-54.27349
2024-02-11 13:44:00+00:00,315.0,0.01,188.0,0.0,12.17,47.59359,-54.27349
2024-02-11 13:54:00+00:00,315.0,0.01,215.0,0.0,12.17,47.59359,-54.27349
2024-02-11 14:04:00+00:00,315.0,0.01,215.0,0.0,12.17,47.59359,-54.27349
2024-02-11 14:14:00+00:00,315.0,0.01,215.0,0.0,12.81,47.59359,-54.27349
2024-02-11 14:24:00+00:00,315.0,0.01,192.0,0.0,12.81,47.59359,-54.27349
2024-02-11 14:34:00+00:00,191.0,4.36,212.0,5.24,12.81,47.59359,-54.27349
2024-02-11 14:44:00+00:00,181.0,4.14,189.0,4.78,12.81,47.59359,-54.27349
2024-02-11 14:54:00+00:00,169.0,4.13,159.0,4.62,12.81,47.59359,-54.27349
2024-02-11 15:04:00+00:00,167.0,3.82,155.0,4.28,12.81,47.59359,-54.27349
2024-02-11 15:14:00+00:00,162.0,4.54,163.0,4.55,13.21,47.59359,-54.27349
2024-02-11 15:24:00+00:00,315.0,0.01,163.0,0.0,13.21,47.59359,-54.27349
2024-02-11 15:34:00+00:00,315.0,0.01,163.0,0.0,13.21,47.59359,-54.27349
2024-02-11 15:44:00+00:00,315.0,0.01,163.0,0.0,13.21,47.59359,-54.27349
2024-02-11 15:54:00+00:00,315.0,0.01,163.0,0.0,13.21,47.59359,-54.27349
2024-02-11 16:04:00+00:00,315.0,0.01,163.0,0.0,13.21,47.59359,-54.27349
2024-02-11 16:14:00+00:00,315.0,0.01,163.0,0.0,12.89,47.59359,-54.27349
2024-02-11 16:24:00+00:00,315.0,0.01,163.0,0.0,12.89,47.59359,-54.27349
2024-02-11 16:34:00+00:00,315.0,0.01,163.0,0.0,12.89,47.59359,-54.27349
2024-02-11 16:44:00+00:00,315.0,0.01,163.0,0.0,12.89,47.59359,-54.27349
2024-02-11 16:54:00+00:00,315.0,0.01,163.0,0.0,12.89,47.59359,-54.27349
2024-02-11 17:04:00+00:00,315.0,0.01,163.0,0.0,12.89,47.59359,-54.27349
2024-02-11 17:14:00+00:00,315.0,0.01,163.0,0.0,13.13,47.59359,-54.27349
2024-02-11 17:24:00+00:00,315.0,0.01,163.0,0.0,13.13,47.59359,-54.27349
2024-02-11 17:34:00+00:00,315.0,0.01,252.0,0.0,13.13,47.59359,-54.27349
2024-02-11 17:44:00+00:00,315.0,0.01,252.0,0.0,13.13,47.59359,-54.27349
2024-02-11 17:54:00+00:00,315.0,0.01,252.0,0.0,13.13,47.59359,-54.27349
2024-02-11 18:04:00+00:00,315.0,0.01,252.0,0.0,13.13,47.59359,-54.27349
2024-02-11 18:14:01+00:00,248.0,11.15,249.0,11.16,12.81,47.59359,-54.27349
2024-02-11 18:24:01+00:00,315.0,0.01,249.0,0.0,12.81,47.59359,-54.27349
2024-02-11 18:34:01+00:00,315.0,0.01,249.0,0.0,12.81,47.59359,-54.27349
2024-02-11 18:44:01+00:00,315.0,0.01,249.0,0.0,12.81,47.59359,-54.27349
2024-02-11 18:54:01+00:00,315.0,0.01,249.0,0.0,12.81,47.59359,-54.27349
2024-02-11 19:04:01+00:00,315.0,0.01,249.0,0.0,12.81,47.59359,-54.27349
2024-02-11 19:14:00+00:00,315.0,0.01,249.0,0.0,12.65,47.59359,-54.27349
2024-02-11 19:24:00+00:00,315.0,0.01,249.0,0.0,12.65,47.59359,-54.27349
2024-02-11 19:34:00+00:00,315.0,0.01,213.0,0.0,12.65,47.59359,-54.27349
2024-02-11 19:44:00+00:00,315.0,0.01,213.0,0.0,12.65,47.59359,-54.27349
2024-02-11 19:54:00+00:00,315.0,0.01,213.0,0.0,12.65,47.59359,-54.27349
2024-02-11 20:04:00+00:00,315.0,0.01,213.0,0.0,12.65,47.59359,-54.27349
2024-02-11 20:14:00+00:00,315.0,0.01,213.0,0.0,12.49,47.59359,-54.27349
2024-02-11 20:24:00+00:00,315.0,0.01,213.0,0.0,12.49,47.59359,-54.27349
2024-02-11 20:34:00+00:00,315.0,0.01,179.0,0.0,12.49,47.59359,-54.27349
2024-02-11 20:44:00+00:00,237.0,11.42,234.0,11.57,12.49,47.59359,-54.27349
2024-02-11 20:54:00+00:00,240.0,11.35,240.0,11.57,12.49,47.59359,-54.27349
2024-02-11 21:04:00+00:00,247.0,11.01,247.0,11.04,12.49,47.59359,-54.27349
2024-02-11 21:14:00+00:00,244.0,10.13,252.0,13.46,12.33,47.59359,-54.27349
2024-02-11 21:24:00+00:00,235.0,11.0,234.0,12.2,12.33,47.59359,-54.27349
2024-02-11 21:34:00+00:00,232.0,11.33,236.0,11.82,12.33,47.59359,-54.27349
2024-02-11 21:44:00+00:00,315.0,0.01,223.0,0.0,12.33,47.59359,-54.27349
2024-02-11 21:54:00+00:00,220.0,10.56,221.0,10.57,12.33,47.59359,-54.27349
2024-02-11 22:04:00+00:00,315.0,0.01,224.0,0.0,12.33,47.59359,-54.27349
2024-02-11 22:14:00+00:00,315.0,0.01,224.0,0.0,12.25,47.59359,-54.27349
2024-02-11 22:24:00+00:00,315.0,0.01,224.0,0.0,12.25,47.59359,-54.27349
2024-02-11 22:34:00+00:00,315.0,0.01,238.0,0.0,12.25,47.59359,-54.27349
2024-02-11 22:44:00+00:00,315.0,0.01,238.0,0.0,12.25,47.59359,-54.27349
2024-02-11 22:54:00+00:00,315.0,0.01,238.0,0.0,12.25,47.59359,-54.27349
2024-02-11 23:04:00+00:00,228.0,12.6,228.0,13.17,12.25,47.59359,-54.27349
2024-02-11 23:14:00+00:00,315.0,0.01,230.0,0.0,12.17,47.59359,-54.27349
2024-02-11 23:24:00+00:00,232.0,11.67,238.0,11.77,12.17,47.59359,-54.27349
2024-02-11 23:34:00+00:00,315.0,0.01,229.0,0.0,12.17,47.59359,-54.27349
2024-02-11 23:44:00+00:00,234.0,12.36,234.0,12.57,12.17,47.59359,-54.27349
2024-02-11 23:54:00+00:00,315.0,0.01,233.0,0.0,12.17,47.59359,-54.27349
